This is the latest recevied weather packets stored in our database for station/object ZS1OSS-13. If no packets are shown the sender has not sent any weather packets the latest 1 day(s).
| Time | Temp. | Humidity | Pressure | Rain* | Wind** | Luminosity | Snow |
|---|---|---|---|---|---|---|---|
| 1778057321 | 16.67° C | 93% | 1018.4 hPa | 0 mm | - | 121 W/m² | - |
| 1778056715 | 16.11° C | 93% | 1018.6 hPa | 0 mm | - | 160 W/m² | - |
| 1778056110 | 16.11° C | 93% | 1018.3 hPa | 1.27 mm | - | 71 W/m² | - |
| 1778055806 | 16.11° C | 92% | 1018.4 hPa | 3.05 mm | - | 45 W/m² | - |
| 1778055502 | 15.56° C | 92% | 1018.2 hPa | 3.05 mm | - | 96 W/m² | - |
| 1778054898 | 15.56° C | 92% | 1018.3 hPa | 0 mm | - | 58 W/m² | - |
| 1778054594 | 15° C | 92% | 1018.3 hPa | 0 mm | - | 91 W/m² | - |
| 1778054292 | 15.56° C | 93% | 1018.5 hPa | 0 mm | - | 101 W/m² | - |
| 1778053989 | 15° C | 93% | 1018.6 hPa | 0 mm | - | 93 W/m² | - |
| 1778053686 | 15° C | 93% | 1018.6 hPa | 0 mm | - | 68 W/m² | - |
| 1778052475 | 14.44° C | 94% | 1018.3 hPa | 0 mm | - | 61 W/m² | - |
| 1778052172 | 14.44° C | 94% | 1018.4 hPa | 0 mm | - | 51 W/m² | - |
| 1778051870 | 14.44° C | 95% | 1018.5 hPa | 0 mm | - | 61 W/m² | - |
| 1778051568 | 13.89° C | 95% | 1018.4 hPa | 0 mm | - | 35 W/m² | - |
| 1778050053 | 13.89° C | 96% | 1018.1 hPa | 0 mm | - | 68 W/m² | - |
| 1778049143 | 13.33° C | 96% | 1018.1 hPa | 0 mm | - | 132 W/m² | - |
| 1778048842 | 13.33° C | 96% | 1018.2 hPa | 0 mm | - | 100 W/m² | - |
| 1778047932 | 13.33° C | 96% | 1017.5 hPa | 0 mm | - | 52 W/m² | - |
| 1778047024 | 12.78° C | 96% | 1017.7 hPa | 0 mm | - | 16 W/m² | - |
| 1778046418 | 12.78° C | 96% | 1017.8 hPa | 0 mm | - | 10 W/m² | - |
| 1778046114 | 12.78° C | 96% | 1017.6 hPa | 0 mm | - | 6 W/m² | - |
| 1778045812 | 12.78° C | 96% | 1017.6 hPa | 0 mm | - | 4 W/m² | - |
| 1778045510 | 12.78° C | 96% | 1017.9 hPa | 0 mm | - | 3 W/m² | - |
| 1778045208 | 12.78° C | 96% | 1017.6 hPa | 0 mm | - | 1 W/m² | - |
| 1778044906 | 12.78° C | 96% | 1017.6 hPa | 0 mm | - | 0 W/m² | - |
* Rain latest hour (hover to see other rain measurements)
** Current wind speed in m/s (hover to see current wind gust speed)